| time (UTC) | temp F | wind direction | speed MPH | gust MPH | rain 1hr in | rain 24hr in | rain mn in | humidity % | barometer mb |
| 20260507101619 | 50 | 19 | 1.0 | 1.0 | 0.00 | 0.00 | 0.00 | 97 | 1019.5 |
| 20260507101114 | 50 | 19 | 0.0 | 0.0 | 0.00 | 0.00 | 0.00 | 97 | 1019.4 |
| 20260507100612 | 50 | 19 | 1.0 | 1.0 | 0.00 | 0.00 | 0.00 | 97 | 1019.2 |
| 20260507100110 | 50 | 19 | 2.0 | 2.0 | 0.00 | 0.00 | 0.00 | 97 | 1019.4 |
| 20260507095608 | 50 | 20 | 1.0 | 2.0 | 0.00 | 0.00 | 0.00 | 97 | 1019.3 |
| 20260507095104 | 50 | 22 | 1.0 | 1.0 | 0.00 | 0.00 | 0.00 | 97 | 1019.4 |
| 20260507094600 | 50 | 22 | 1.0 | 2.0 | 0.00 | 0.00 | 0.00 | 97 | 1019.6 |
| 20260507094057 | 50 | 22 | 0.0 | 1.0 | 0.00 | 0.00 | 0.00 | 97 | 1019.6 |
| 20260507093555 | 50 | 22 | 0.0 | 1.0 | 0.00 | 0.00 | 0.00 | 97 | 1019.4 |
| 20260507093054 | 50 | 23 | 1.0 | 1.0 | 0.00 | 0.00 | 0.00 | 97 | 1019.4 |
| 20260507092549 | 50 | 23 | 0.0 | 1.0 | 0.00 | 0.00 | 0.00 | 97 | 1019.4 |
| 20260507092040 | 50 | 23 | 0.0 | 0.0 | 0.00 | 0.00 | 0.00 | 97 | 1019.3 |
| 20260507091537 | 51 | 23 | 0.0 | 0.0 | 0.00 | 0.00 | 0.00 | 97 | 1019.3 |
| 20260507091033 | 51 | 23 | 0.0 | 0.0 | 0.00 | 0.00 | 0.00 | 97 | 1019.0 |
| 20260507090529 | 50 | 27 | 1.0 | 2.0 | 0.00 | 0.00 | 0.00 | 97 | 1019.1 |
| 20260507090026 | 50 | 29 | 1.0 | 1.0 | 0.00 | 0.00 | 0.00 | 97 | 1019.0 |
| 20260507085524 | 50 | 28 | 1.0 | 2.0 | 0.00 | 0.00 | 0.00 | 96 | 1019.1 |
| 20260507085020 | 50 | 30 | 2.0 | 2.0 | 0.00 | 0.00 | 0.00 | 96 | 1019.0 |
| 20260507084517 | 51 | 30 | 1.0 | 2.0 | 0.00 | 0.00 | 0.00 | 96 | 1018.8 |
| 20260507084014 | 51 | 30 | 0.0 | 0.0 | 0.00 | 0.00 | 0.00 | 96 | 1019.0 |
| 20260507083510 | 51 | 30 | 0.0 | 0.0 | 0.00 | 0.00 | 0.00 | 96 | 1019.0 |
| 20260507083007 | 51 | 30 | 1.0 | 1.0 | 0.00 | 0.00 | 0.00 | 96 | 1018.8 |
| 20260507082503 | 51 | 29 | 1.0 | 1.0 | 0.00 | 0.00 | 0.00 | 96 | 1018.9 |
| 20260507081959 | 51 | 18 | 0.0 | 0.0 | 0.00 | 0.00 | 0.00 | 96 | 1018.9 |
| 20260507081455 | 51 | 17 | 0.0 | 1.0 | 0.00 | 0.00 | 0.00 | 96 | 1019.2 |
| 20260507080953 | 51 | 15 | 1.0 | 1.0 | 0.00 | 0.00 | 0.00 | 96 | 1019.1 |
| 20260507080448 | 51 | 15 | 2.0 | 2.0 | 0.00 | 0.00 | 0.00 | 96 | 1019.2 |
| 20260507075944 | 51 | 15 | 2.0 | 2.0 | 0.00 | 0.00 | 0.00 | 96 | 1019.0 |
| 20260507075440 | 51 | 12 | 3.0 | 3.0 | 0.00 | 0.00 | 0.00 | 96 | 1019.0 |
| 20260507074931 | 52 | 14 | 2.0 | 3.0 | 0.00 | 0.00 | 0.00 | 96 | 1019.0 |
| 20260507074428 | 52 | 15 | 2.0 | 2.0 | 0.00 | 0.00 | 0.00 | 96 | 1019.1 |
| 20260507073926 | 52 | 17 | 3.0 | 3.0 | 0.00 | 0.00 | 0.00 | 96 | 1018.9 |
| 20260507073422 | 52 | 24 | 2.0 | 2.0 | 0.00 | 0.00 | 0.00 | 96 | 1019.0 |
| 20260507072919 | 52 | 53 | 2.0 | 2.0 | 0.00 | 0.00 | 0.00 | 95 | 1019.0 |
| 20260507072416 | 52 | 59 | 0.0 | 0.0 | 0.00 | 0.00 | 0.00 | 95 | 1018.9 |
| 20260507071914 | 52 | 59 | 0.0 | 0.0 | 0.00 | 0.00 | 0.00 | 95 | 1018.9 |
| 20260507071410 | 52 | 59 | 0.0 | 0.0 | 0.00 | 0.00 | 0.00 | 95 | 1018.8 |
| 20260507070906 | 52 | 59 | 1.0 | 1.0 | 0.00 | 0.00 | 0.00 | 95 | 1018.9 |
| 20260507070404 | 52 | 59 | 1.0 | 1.0 | 0.00 | 0.00 | 0.00 | 95 | 1018.9 |
| 20260507065901 | 53 | 59 | 1.0 | 1.0 | 0.00 | 0.00 | 0.00 | 95 | 1018.7 |
| 20260507065357 | 53 | 59 | 1.0 | 1.0 | 0.00 | 0.00 | 0.00 | 95 | 1018.7 |
| 20260507064854 | 53 | 65 | 1.0 | 1.0 | 0.00 | 0.00 | 0.00 | 94 | 1018.5 |
| 20260507064353 | 53 | 72 | 1.0 | 1.0 | 0.00 | 0.00 | 0.00 | 94 | 1018.4 |
| 20260507063851 | 53 | 73 | 1.0 | 1.0 | 0.00 | 0.00 | 0.00 | 94 | 1018.6 |
| 20260507063347 | 53 | 70 | 3.0 | 3.0 | 0.00 | 0.00 | 0.00 | 94 | 1018.5 |
| 20260507062844 | 53 | 68 | 2.0 | 2.0 | 0.00 | 0.00 | 0.00 | 94 | 1018.7 |
| 20260507062341 | 53 | 76 | 2.0 | 3.0 | 0.00 | 0.00 | 0.00 | 94 | 1018.7 |
| 20260507061839 | 54 | 71 | 3.0 | 3.0 | 0.00 | 0.00 | 0.00 | 93 | 1018.5 |
| 20260507061336 | 54 | 58 | 3.0 | 3.0 | 0.00 | 0.00 | 0.00 | 93 | 1018.7 |
| 20260507060835 | 54 | 60 | 3.0 | 3.0 | 0.00 | 0.00 | 0.00 | 93 | 1018.6 |
| 20260507060331 | 54 | 51 | 3.0 | 3.0 | 0.00 | 0.00 | 0.00 | 93 | 1018.6 |
| 20260507055828 | 54 | 61 | 3.0 | 3.0 | 0.00 | 0.00 | 0.00 | 93 | 1018.6 |
| 20260507055323 | 54 | 62 | 3.0 | 3.0 | 0.00 | 0.00 | 0.00 | 93 | 1018.6 |
| 20260507054820 | 54 | 68 | 3.0 | 3.0 | 0.00 | 0.00 | 0.00 | 92 | 1018.7 |
| 20260507054316 | 55 | 65 | 2.0 | 2.0 | 0.00 | 0.00 | 0.00 | 92 | 1018.7 |
| 20260507053814 | 55 | 70 | 3.0 | 3.0 | 0.00 | 0.00 | 0.00 | 92 | 1018.6 |
| 20260507053311 | 55 | 56 | 3.0 | 3.0 | 0.00 | 0.00 | 0.00 | 91 | 1018.8 |
| 20260507052810 | 55 | 60 | 4.0 | 5.0 | 0.00 | 0.00 | 0.00 | 91 | 1018.9 |
| 20260507052307 | 55 | 70 | 2.0 | 2.0 | 0.00 | 0.00 | 0.00 | 91 | 1018.8 |
| 20260507051804 | 55 | 79 | 4.0 | 6.0 | 0.00 | 0.00 | 0.00 | 90 | 1018.9 |
| 20260507051301 | 55 | 76 | 3.0 | 3.0 | 0.00 | 0.00 | 0.00 | 90 | 1018.9 |
| 20260507050758 | 56 | 48 | 5.0 | 7.0 | 0.00 | 0.00 | 0.00 | 90 | 1018.8 |
| 20260507050254 | 56 | 57 | 5.0 | 6.0 | 0.00 | 0.00 | 0.00 | 89 | 1018.8 |
| 20260507045751 | 56 | 61 | 5.0 | 5.0 | 0.00 | 0.25 | 0.25 | 89 | 1019.0 |
| 20260507045247 | 56 | 75 | 3.0 | 3.0 | 0.00 | 0.25 | 0.25 | 89 | 1019.2 |
| 20260507044745 | 56 | 49 | 4.0 | 5.0 | 0.00 | 0.25 | 0.25 | 88 | 1018.9 |
| 20260507044241 | 56 | 57 | 3.0 | 3.0 | 0.00 | 0.25 | 0.25 | 88 | 1019.0 |
| 20260507043737 | 56 | 54 | 2.0 | 2.0 | 0.00 | 0.25 | 0.25 | 88 | 1019.0 |
| 20260507043234 | 56 | 50 | 3.0 | 3.0 | 0.00 | 0.25 | 0.25 | 88 | 1019.2 |
| 20260507042731 | 56 | 50 | 1.0 | 2.0 | 0.00 | 0.25 | 0.25 | 87 | 1019.0 |
| 20260507042226 | 56 | 65 | 5.0 | 6.0 | 0.00 | 0.25 | 0.25 | 87 | 1019.5 |
| 20260507041724 | 56 | 56 | 3.0 | 3.0 | 0.00 | 0.25 | 0.25 | 87 | 1019.1 |
| 20260507041221 | 56 | 40 | 3.0 | 3.0 | 0.00 | 0.25 | 0.25 | 86 | 1019.2 |
| 20260507040718 | 56 | 45 | 3.0 | 3.0 | 0.00 | 0.25 | 0.25 | 86 | 1019.1 |
| 20260507040214 | 57 | 27 | 4.0 | 5.0 | 0.00 | 0.25 | 0.25 | 86 | 1019.2 |
| 20260507035710 | 57 | 56 | 2.0 | 3.0 | 0.00 | 0.25 | 0.25 | 86 | 1019.0 |
| 20260507035205 | 57 | 56 | 4.0 | 6.0 | 0.00 | 0.25 | 0.25 | 86 | 1019.2 |
| 20260507034702 | 57 | 53 | 1.0 | 2.0 | 0.00 | 0.25 | 0.25 | 86 | 1019.1 |
| 20260507034200 | 57 | 51 | 2.0 | 3.0 | 0.00 | 0.25 | 0.25 | 85 | 1019.0 |
| 20260507033658 | 57 | 40 | 6.0 | 8.0 | 0.00 | 0.25 | 0.25 | 86 | 1019.2 |
| 20260507033155 | 57 | 17 | 4.0 | 5.0 | 0.00 | 0.25 | 0.25 | 86 | 1019.1 |
| 20260507032653 | 57 | 32 | 4.0 | 5.0 | 0.00 | 0.25 | 0.25 | 86 | 1019.0 |
| 20260507032148 | 57 | 48 | 2.0 | 3.0 | 0.00 | 0.25 | 0.25 | 86 | 1019.1 |
| 20260507031645 | 57 | 42 | 5.0 | 6.0 | 0.00 | 0.25 | 0.25 | 86 | 1018.8 |
| 20260507031142 | 57 | 36 | 4.0 | 6.0 | 0.00 | 0.25 | 0.25 | 87 | 1018.6 |
| 20260507030639 | 57 | 33 | 5.0 | 6.0 | 0.00 | 0.25 | 0.25 | 87 | 1018.7 |
| 20260507030137 | 57 | 69 | 6.0 | 7.0 | 0.00 | 0.25 | 0.25 | 87 | 1018.5 |
| 20260507025633 | 57 | 52 | 3.0 | 6.0 | 0.00 | 0.25 | 0.25 | 87 | 1018.6 |
| 20260507025130 | 57 | 59 | 4.0 | 5.0 | 0.00 | 0.25 | 0.25 | 87 | 1018.6 |
| 20260507024628 | 57 | 46 | 4.0 | 6.0 | 0.00 | 0.25 | 0.25 | 87 | 1018.4 |
| 20260507024125 | 57 | 25 | 3.0 | 3.0 | 0.00 | 0.25 | 0.25 | 87 | 1018.1 |
| 20260507023621 | 57 | 46 | 2.0 | 2.0 | 0.00 | 0.25 | 0.25 | 87 | 1018.1 |
| 20260507023119 | 57 | 51 | 2.0 | 2.0 | 0.00 | 0.25 | 0.25 | 87 | 1018.0 |
| 20260507022615 | 57 | 68 | 2.0 | 2.0 | 0.00 | 0.25 | 0.25 | 87 | 1018.0 |
| 20260507022110 | 57 | 51 | 3.0 | 5.0 | 0.00 | 0.25 | 0.25 | 87 | 1017.8 |
| 20260507021607 | 57 | 48 | 3.0 | 5.0 | 0.00 | 0.25 | 0.25 | 88 | 1017.7 |
| 20260507021103 | 57 | 60 | 4.0 | 5.0 | 0.00 | 0.25 | 0.25 | 89 | 1017.7 |
| 20260507020601 | 57 | 46 | 2.0 | 3.0 | 0.00 | 0.25 | 0.25 | 89 | 1017.7 |
| 20260507020056 | 57 | 66 | 3.0 | 5.0 | 0.00 | 0.25 | 0.25 | 89 | 1017.6 |
| 20260507015555 | 57 | 55 | 1.0 | 2.0 | 0.00 | 0.25 | 0.25 | 90 | 1017.3 |
| 20260507015047 | 57 | 42 | 3.0 | 3.0 | 0.00 | 0.25 | 0.25 | 90 | 1017.5 |
| 20260507014543 | 57 | 58 | 2.0 | 3.0 | 0.00 | 0.25 | 0.25 | 90 | 1017.1 |
| 20260507014033 | 57 | 70 | 1.0 | 1.0 | 0.00 | 0.25 | 0.25 | 90 | 1016.8 |
| 20260507013530 | 57 | 34 | 2.0 | 2.0 | 0.00 | 0.25 | 0.25 | 90 | 1017.0 |
| 20260507013027 | 57 | 40 | 3.0 | 6.0 | 0.00 | 0.25 | 0.25 | 90 | 1016.8 |
| 20260507012525 | 57 | 59 | 2.0 | 3.0 | 0.00 | 0.25 | 0.25 | 89 | 1016.6 |
| 20260507012021 | 57 | 51 | 4.0 | 5.0 | 0.00 | 0.25 | 0.25 | 89 | 1016.9 |
| 20260507011519 | 57 | 57 | 2.0 | 3.0 | 0.00 | 0.25 | 0.25 | 89 | 1016.7 |
| 20260507011014 | 57 | 46 | 6.0 | 8.0 | 0.00 | 0.25 | 0.25 | 89 | 1016.8 |
| 20260507010509 | 57 | 56 | 4.0 | 5.0 | 0.00 | 0.25 | 0.25 | 89 | 1016.6 |
| 20260507010006 | 57 | 41 | 2.0 | 2.0 | 0.00 | 0.25 | 0.25 | 89 | 1016.6 |
| 20260507005503 | 57 | 4 | 3.0 | 5.0 | 0.00 | 0.25 | 0.25 | 89 | 1016.3 |
| 20260507004959 | 57 | 38 | 5.0 | 7.0 | 0.00 | 0.25 | 0.25 | 89 | 1016.3 |
| 20260507004455 | 57 | 51 | 3.0 | 3.0 | 0.00 | 0.25 | 0.25 | 89 | 1016.2 |
| 20260507003948 | 57 | 38 | 4.0 | 6.0 | 0.00 | 0.25 | 0.25 | 89 | 1016.2 |
| 20260507003443 | 57 | 40 | 4.0 | 6.0 | 0.00 | 0.25 | 0.25 | 89 | 1016.3 |
| 20260507002938 | 57 | 41 | 3.0 | 3.0 | 0.00 | 0.25 | 0.25 | 89 | 1016.1 |
| 20260507002435 | 57 | 49 | 3.0 | 3.0 | 0.00 | 0.25 | 0.25 | 88 | 1016.1 |
| 20260507001931 | 57 | 21 | 6.0 | 7.0 | 0.00 | 0.25 | 0.25 | 89 | 1016.0 |
| 20260507001428 | 57 | 31 | 7.0 | 9.0 | 0.00 | 0.25 | 0.25 | 89 | 1016.0 |
| 20260507000925 | 57 | 46 | 2.0 | 2.0 | 0.00 | 0.25 | 0.25 | 89 | 1016.0 |
| 20260507000420 | 57 | 64 | 3.0 | 3.0 | 0.00 | 0.25 | 0.25 | 89 | 1016.0 |
| 20260506235916 | 57 | 40 | 4.0 | 5.0 | 0.00 | 0.25 | 0.25 | 89 | 1015.9 |
| 20260506235414 | 57 | 45 | 3.0 | 5.0 | 0.00 | 0.25 | 0.25 | 89 | 1015.8 |
| 20260506234909 | 57 | 64 | 2.0 | 3.0 | 0.00 | 0.25 | 0.25 | 89 | 1016.1 |
| 20260506234408 | 57 | 51 | 5.0 | 7.0 | 0.00 | 0.25 | 0.25 | 89 | 1015.7 |
| 20260506233905 | 57 | 65 | 6.0 | 8.0 | 0.00 | 0.25 | 0.25 | 89 | 1015.7 |
| 20260506233400 | 57 | 55 | 3.0 | 3.0 | 0.00 | 0.25 | 0.25 | 89 | 1015.6 |
| 20260506232858 | 57 | 27 | 6.0 | 8.0 | 0.00 | 0.25 | 0.25 | 89 | 1015.5 |
| 20260506232354 | 57 | 39 | 6.0 | 8.0 | 0.00 | 0.25 | 0.25 | 90 | 1015.3 |
| 20260506231850 | 57 | 44 | 3.0 | 6.0 | 0.00 | 0.25 | 0.25 | 90 | 1015.4 |
| 20260506231348 | 57 | 29 | 3.0 | 3.0 | 0.00 | 0.25 | 0.25 | 90 | 1015.6 |
| 20260506230845 | 57 | 7 | 5.0 | 7.0 | 0.00 | 0.25 | 0.25 | 89 | 1015.8 |
| 20260506230342 | 57 | 57 | 5.0 | 8.0 | 0.00 | 0.25 | 0.25 | 89 | 1015.5 |
| 20260506225837 | 57 | 64 | 8.0 | 10.0 | 0.00 | 0.25 | 0.25 | 89 | 1015.6 |
| 20260506225335 | 57 | 33 | 4.0 | 7.0 | 0.00 | 0.25 | 0.25 | 89 | 1015.6 |
| 20260506224832 | 57 | 14 | 8.0 | 10.0 | 0.00 | 0.25 | 0.25 | 89 | 1015.8 |
| 20260506224329 | 57 | 21 | 4.0 | 6.0 | 0.00 | 0.25 | 0.25 | 89 | 1015.8 |
| 20260506223826 | 57 | 11 | 4.0 | 6.0 | 0.00 | 0.25 | 0.25 | 89 | 1015.8 |
| 20260506223320 | 56 | 1 | 5.0 | 6.0 | 0.00 | 0.25 | 0.25 | 89 | 1015.7 |
| 20260506222818 | 56 | 8 | 3.0 | 5.0 | 0.00 | 0.25 | 0.25 | 89 | 1015.7 |
| 20260506222314 | 56 | 2 | 7.0 | 9.0 | 0.00 | 0.25 | 0.25 | 89 | 1015.0 |
| 20260506221812 | 56 | 39 | 5.0 | 7.0 | 0.00 | 0.25 | 0.25 | 89 | 1015.4 |
| 20260506221309 | 56 | 356 | 6.0 | 8.0 | 0.00 | 0.25 | 0.25 | 89 | 1015.2 |
| 20260506220807 | 57 | 46 | 5.0 | 7.0 | 0.00 | 0.25 | 0.25 | 89 | 1015.1 |
| 20260506220301 | 57 | 5 | 7.0 | 9.0 | 0.00 | 0.25 | 0.25 | 88 | 1015.2 |
| 20260506215758 | 57 | 10 | 4.0 | 7.0 | 0.00 | 0.25 | 0.25 | 88 | 1015.1 |
| 20260506215254 | 57 | 359 | 5.0 | 7.0 | 0.00 | 0.25 | 0.25 | 88 | 1015.1 |
| 20260506214750 | 57 | 345 | 8.0 | 9.0 | 0.00 | 0.25 | 0.25 | 88 | 1015.0 |
| 20260506214247 | 57 | 46 | 2.0 | 2.0 | 0.00 | 0.25 | 0.25 | 88 | 1015.2 |
| 20260506213746 | 57 | 16 | 6.0 | 9.0 | 0.00 | 0.25 | 0.25 | 88 | 1015.3 |
| 20260506213242 | 57 | 28 | 7.0 | 8.0 | 0.00 | 0.25 | 0.25 | 87 | 1015.4 |
| 20260506212740 | 57 | 18 | 7.0 | 9.0 | 0.00 | 0.25 | 0.25 | 87 | 1015.3 |
| 20260506212236 | 57 | 14 | 5.0 | 7.0 | 0.00 | 0.25 | 0.25 | 86 | 1015.2 |
| 20260506211731 | 58 | 34 | 6.0 | 7.0 | 0.00 | 0.25 | 0.25 | 86 | 1015.2 |
| 20260506211228 | 58 | 50 | 3.0 | 5.0 | 0.00 | 0.25 | 0.25 | 86 | 1015.2 |
| 20260506210725 | 57 | 51 | 2.0 | 2.0 | 0.00 | 0.25 | 0.25 | 86 | 1015.4 |
| 20260506210221 | 58 | 1 | 10.0 | 11.0 | 0.00 | 0.25 | 0.25 | 86 | 1015.5 |
| 20260506205713 | 58 | 18 | 6.0 | 7.0 | 0.00 | 0.25 | 0.25 | 87 | 1015.2 |
| 20260506205208 | 58 | 349 | 7.0 | 8.0 | 0.00 | 0.25 | 0.25 | 86 | 1015.2 |
| 20260506204706 | 58 | 355 | 7.0 | 8.0 | 0.00 | 0.25 | 0.25 | 86 | 1015.1 |
| 20260506204203 | 58 | 342 | 5.0 | 8.0 | 0.00 | 0.25 | 0.25 | 87 | 1015.3 |
| 20260506203701 | 58 | 17 | 4.0 | 6.0 | 0.00 | 0.25 | 0.25 | 87 | 1015.8 |
| 20260506203158 | 58 | 10 | 4.0 | 5.0 | 0.00 | 0.25 | 0.25 | 88 | 1015.5 |
| 20260506202656 | 57 | 10 | 4.0 | 6.0 | 0.00 | 0.25 | 0.25 | 88 | 1015.8 |
| 20260506202151 | 57 | 3 | 5.0 | 6.0 | 0.00 | 0.25 | 0.25 | 89 | 1016.2 |
| 20260506201649 | 57 | 2 | 4.0 | 5.0 | 0.00 | 0.25 | 0.25 | 88 | 1015.9 |
| 20260506201145 | 57 | 8 | 4.0 | 6.0 | 0.00 | 0.25 | 0.25 | 89 | 1016.1 |
| 20260506200642 | 57 | 12 | 6.0 | 7.0 | 0.00 | 0.25 | 0.25 | 89 | 1015.9 |
| 20260506200138 | 57 | 9 | 5.0 | 6.0 | 0.00 | 0.25 | 0.25 | 90 | 1015.7 |
| 20260506195635 | 57 | 356 | 8.0 | 9.0 | 0.00 | 0.25 | 0.25 | 90 | 1015.1 |
| 20260506195131 | 57 | 351 | 7.0 | 8.0 | 0.00 | 0.25 | 0.25 | 91 | 1015.2 |
| 20260506194629 | 56 | 5 | 5.0 | 6.0 | 0.00 | 0.25 | 0.25 | 90 | 1015.3 |
| 20260506194125 | 56 | 358 | 5.0 | 6.0 | 0.00 | 0.25 | 0.25 | 90 | 1015.5 |
| 20260506193623 | 56 | 2 | 5.0 | 6.0 | 0.00 | 0.25 | 0.25 | 90 | 1015.9 |
| 20260506193120 | 56 | 335 | 5.0 | 6.0 | 0.00 | 0.25 | 0.25 | 90 | 1016.0 |
| 20260506192617 | 56 | 4 | 4.0 | 6.0 | 0.00 | 0.25 | 0.25 | 90 | 1015.9 |
| 20260506192112 | 56 | 48 | 3.0 | 3.0 | 0.00 | 0.25 | 0.25 | 90 | 1015.9 |
| 20260506191609 | 56 | 55 | 3.0 | 3.0 | 0.00 | 0.25 | 0.25 | 90 | 1015.9 |
| 20260506191104 | 56 | 358 | 3.0 | 3.0 | 0.00 | 0.25 | 0.25 | 90 | 1016.0 |
| 20260506190602 | 56 | 35 | 3.0 | 3.0 | 0.00 | 0.25 | 0.25 | 89 | 1015.7 |
| 20260506190059 | 56 | 30 | 3.0 | 5.0 | 0.00 | 0.25 | 0.25 | 89 | 1015.7 |
| 20260506185556 | 56 | 48 | 2.0 | 2.0 | 0.00 | 0.25 | 0.25 | 89 | 1015.6 |
| 20260506185053 | 56 | 58 | 3.0 | 5.0 | 0.00 | 0.25 | 0.25 | 89 | 1015.6 |
| 20260506184550 | 56 | 25 | 3.0 | 5.0 | 0.00 | 0.25 | 0.25 | 90 | 1015.1 |
| 20260506184047 | 56 | 66 | 2.0 | 3.0 | 0.00 | 0.25 | 0.25 | 90 | 1014.7 |
| 20260506183543 | 56 | 11 | 3.0 | 6.0 | 0.00 | 0.25 | 0.25 | 90 | 1014.3 |
| 20260506183040 | 56 | 24 | 6.0 | 10.0 | 0.00 | 0.25 | 0.25 | 90 | 1013.8 |
| 20260506182537 | 56 | 358 | 8.0 | 10.0 | 0.00 | 0.25 | 0.25 | 91 | 1013.8 |
| 20260506182034 | 55 | 23 | 8.0 | 10.0 | 0.00 | 0.25 | 0.25 | 90 | 1013.6 |
| 20260506181532 | 56 | 35 | 7.0 | 8.0 | 0.00 | 0.25 | 0.25 | 91 | 1013.7 |
| 20260506181029 | 55 | 55 | 6.0 | 8.0 | 0.00 | 0.25 | 0.25 | 92 | 1014.3 |
| 20260506180525 | 55 | 37 | 7.0 | 8.0 | 0.00 | 0.25 | 0.25 | 91 | 1014.5 |
| 20260506180022 | 56 | 39 | 5.0 | 9.0 | 0.00 | 0.25 | 0.25 | 91 | 1014.9 |
| 20260506175519 | 55 | 79 | 6.0 | 7.0 | 0.00 | 0.25 | 0.25 | 92 | 1015.0 |
| 20260506175015 | 55 | 43 | 3.0 | 5.0 | 0.00 | 0.25 | 0.25 | 91 | 1015.1 |
| 20260506174514 | 55 | 45 | 4.0 | 5.0 | 0.00 | 0.25 | 0.25 | 92 | 1015.6 |
| 20260506174009 | 55 | 29 | 3.0 | 3.0 | 0.00 | 0.25 | 0.25 | 92 | 1016.0 |
| 20260506173507 | 55 | 1 | 5.0 | 6.0 | 0.00 | 0.25 | 0.25 | 92 | 1016.5 |
| 20260506173004 | 55 | 29 | 4.0 | 5.0 | 0.00 | 0.25 | 0.25 | 92 | 1015.9 |
| 20260506172501 | 55 | 2 | 5.0 | 7.0 | 0.00 | 0.25 | 0.25 | 92 | 1015.7 |
| 20260506171952 | 55 | 22 | 5.0 | 6.0 | 0.00 | 0.25 | 0.25 | 93 | 1015.5 |
| 20260506171449 | 55 | 22 | 4.0 | 5.0 | 0.00 | 0.25 | 0.25 | 92 | 1016.0 |
| 20260506170948 | 54 | 13 | 4.0 | 5.0 | 0.00 | 0.25 | 0.25 | 92 | 1015.8 |
| 20260506170443 | 54 | 21 | 5.0 | 6.0 | 0.00 | 0.25 | 0.25 | 92 | 1016.0 |
| 20260506165942 | 54 | 5 | 6.0 | 8.0 | 0.00 | 0.25 | 0.25 | 92 | 1015.8 |
| 20260506165440 | 54 | 344 | 5.0 | 6.0 | 0.00 | 0.25 | 0.25 | 92 | 1015.6 |
| 20260506164936 | 55 | 354 | 2.0 | 5.0 | 0.00 | 0.25 | 0.25 | 93 | 1016.0 |
| 20260506164433 | 54 | 60 | 2.0 | 3.0 | 0.00 | 0.25 | 0.25 | 93 | 1016.2 |
| 20260506163931 | 54 | 42 | 4.0 | 5.0 | 0.00 | 0.25 | 0.25 | 93 | 1015.9 |
| 20260506163425 | 54 | 50 | 7.0 | 10.0 | 0.00 | 0.25 | 0.25 | 93 | 1015.5 |
| 20260506162920 | 54 | 81 | 7.0 | 9.0 | 0.00 | 0.25 | 0.25 | 93 | 1015.2 |
| 20260506162418 | 54 | 56 | 7.0 | 9.0 | 0.07 | 0.25 | 0.25 | 93 | 1015.6 |
| 20260506161915 | 53 | 40 | 5.0 | 6.0 | 0.19 | 0.25 | 0.25 | 93 | 1016.0 |
| 20260506161413 | 53 | 87 | 5.0 | 6.0 | 0.28 | 0.24 | 0.24 | 92 | 1016.0 |
| 20260506160905 | 53 | 64 | 5.0 | 8.0 | 0.42 | 0.21 | 0.21 | 90 | 1017.1 |
| 20260506160401 | 54 | 320 | 11.0 | 14.0 | 0.94 | 0.18 | 0.18 | 88 | 1017.6 |
| 20260506155900 | 54 | 305 | 8.0 | 9.0 | 0.85 | 0.14 | 0.14 | 86 | 1018.5 |
| 20260506155356 | 55 | 337 | 3.0 | 3.0 | 0.14 | 0.02 | 0.02 | 85 | 1017.7 |
| 20260506153513 | 55 | 52 | 3.0 | 5.0 | 0.00 | 0.00 | 0.00 | 85 | 1016.2 |
| 20260506153011 | 55 | 7 | 4.0 | 5.0 | 0.00 | 0.00 | 0.00 | 84 | 1016.0 |
| 20260506152508 | 55 | 36 | 4.0 | 6.0 | 0.00 | 0.00 | 0.00 | 84 | 1015.9 |
| 20260506152006 | 55 | 356 | 9.0 | 11.0 | 0.00 | 0.00 | 0.00 | 84 | 1015.4 |
| 20260506151503 | 55 | 13 | 6.0 | 8.0 | 0.00 | 0.00 | 0.00 | 83 | 1015.6 |
| 20260506151000 | 55 | 352 | 8.0 | 9.0 | 0.00 | 0.00 | 0.00 | 83 | 1015.3 |
| 20260506150456 | 55 | 0 | 7.0 | 8.0 | 0.00 | 0.00 | 0.00 | 83 | 1016.0 |
| 20260506145953 | 55 | 353 | 5.0 | 9.0 | 0.00 | 0.00 | 0.00 | 83 | 1016.5 |
| 20260506145449 | 55 | 340 | 5.0 | 7.0 | 0.00 | 0.00 | 0.00 | 83 | 1016.3 |
| 20260506144947 | 55 | 7 | 7.0 | 8.0 | 0.00 | 0.00 | 0.00 | 83 | 1015.9 |
| 20260506144444 | 55 | 355 | 7.0 | 8.0 | 0.00 | 0.00 | 0.00 | 83 | 1015.9 |
| 20260506143942 | 55 | 354 | 7.0 | 9.0 | 0.00 | 0.00 | 0.00 | 83 | 1015.5 |
| 20260506143438 | 55 | 15 | 4.0 | 6.0 | 0.00 | 0.00 | 0.00 | 84 | 1015.7 |
| 20260506142937 | 54 | 351 | 7.0 | 8.0 | 0.00 | 0.00 | 0.00 | 84 | 1015.6 |
| 20260506142435 | 54 | 49 | 7.0 | 8.0 | 0.00 | 0.00 | 0.00 | 84 | 1015.4 |
| 20260506141932 | 54 | 5 | 4.0 | 6.0 | 0.00 | 0.00 | 0.00 | 85 | 1015.1 |
| 20260506141430 | 54 | 351 | 9.0 | 10.0 | 0.00 | 0.00 | 0.00 | 85 | 1015.2 |
| 20260506140929 | 54 | 21 | 5.0 | 8.0 | 0.00 | 0.00 | 0.00 | 85 | 1014.9 |
| 20260506140425 | 54 | 51 | 4.0 | 5.0 | 0.00 | 0.00 | 0.00 | 85 | 1015.1 |
| 20260506135922 | 53 | 38 | 5.0 | 7.0 | 0.00 | 0.00 | 0.00 | 86 | 1015.0 |
| 20260506135419 | 53 | 355 | 9.0 | 10.0 | 0.00 | 0.00 | 0.00 | 86 | 1014.9 |
| 20260506134915 | 53 | 36 | 7.0 | 9.0 | 0.00 | 0.00 | 0.00 | 86 | 1014.7 |
| 20260506134411 | 53 | 5 | 6.0 | 7.0 | 0.00 | 0.00 | 0.00 | 86 | 1014.9 |
| 20260506133908 | 53 | 334 | 5.0 | 6.0 | 0.00 | 0.00 | 0.00 | 87 | 1014.8 |
| 20260506133405 | 53 | 347 | 9.0 | 10.0 | 0.00 | 0.00 | 0.00 | 87 | 1014.8 |
| 20260506132902 | 52 | 5 | 8.0 | 9.0 | 0.00 | 0.00 | 0.00 | 88 | 1014.6 |
| 20260506132359 | 52 | 33 | 6.0 | 8.0 | 0.00 | 0.00 | 0.00 | 88 | 1014.6 |
| 20260506131857 | 52 | 353 | 4.0 | 7.0 | 0.00 | 0.00 | 0.00 | 89 | 1014.6 |
| 20260506131353 | 52 | 355 | 6.0 | 8.0 | 0.00 | 0.00 | 0.00 | 89 | 1014.9 |
| 20260506130850 | 52 | 7 | 5.0 | 7.0 | 0.00 | 0.00 | 0.00 | 89 | 1014.9 |
| 20260506130346 | 52 | 29 | 5.0 | 6.0 | 0.00 | 0.00 | 0.00 | 89 | 1014.8 |
| 20260506125845 | 52 | 359 | 5.0 | 8.0 | 0.00 | 0.00 | 0.00 | 89 | 1014.7 |
| 20260506125343 | 52 | 356 | 5.0 | 8.0 | 0.00 | 0.00 | 0.00 | 89 | 1014.7 |
| 20260506124841 | 52 | 356 | 6.0 | 7.0 | 0.00 | 0.00 | 0.00 | 89 | 1014.6 |
| 20260506124337 | 52 | 347 | 5.0 | 6.0 | 0.00 | 0.00 | 0.00 | 89 | 1014.6 |
| 20260506123835 | 52 | 9 | 6.0 | 7.0 | 0.00 | 0.00 | 0.00 | 89 | 1014.2 |
| 20260506123333 | 52 | 358 | 6.0 | 8.0 | 0.00 | 0.00 | 0.00 | 89 | 1014.2 |
| 20260506122830 | 52 | 351 | 9.0 | 11.0 | 0.00 | 0.00 | 0.00 | 88 | 1014.2 |
| 20260506122327 | 52 | 1 | 7.0 | 8.0 | 0.00 | 0.00 | 0.00 | 88 | 1014.4 |
| 20260506121825 | 52 | 1 | 4.0 | 6.0 | 0.00 | 0.00 | 0.00 | 88 | 1014.4 |
| 20260506121322 | 52 | 267 | 7.0 | 8.0 | 0.00 | 0.00 | 0.00 | 87 | 1014.1 |
| 20260506120819 | 52 | 352 | 4.0 | 6.0 | 0.00 | 0.00 | 0.00 | 87 | 1013.8 |
| 20260506120317 | 52 | 23 | 6.0 | 7.0 | 0.00 | 0.00 | 0.00 | 86 | 1014.1 |
| 20260506115814 | 52 | 320 | 8.0 | 11.0 | 0.00 | 0.00 | 0.00 | 86 | 1014.1 |
| 20260506115313 | 53 | 341 | 5.0 | 7.0 | 0.00 | 0.00 | 0.00 | 85 | 1013.6 |
| 20260506114810 | 53 | 17 | 7.0 | 9.0 | 0.00 | 0.00 | 0.00 | 84 | 1013.4 |
| 20260506114308 | 53 | 17 | 5.0 | 7.0 | 0.00 | 0.00 | 0.00 | 84 | 1013.6 |
| 20260506113806 | 53 | 310 | 8.0 | 10.0 | 0.00 | 0.00 | 0.00 | 83 | 1013.8 |
| 20260506113303 | 53 | 357 | 9.0 | 11.0 | 0.00 | 0.00 | 0.00 | 83 | 1013.3 |
| 20260506112759 | 53 | 352 | 9.0 | 11.0 | 0.00 | 0.00 | 0.00 | 83 | 1013.4 |
| 20260506112257 | 53 | 358 | 8.0 | 13.0 | 0.00 | 0.00 | 0.00 | 83 | 1013.3 |
| 20260506111754 | 53 | 19 | 5.0 | 6.0 | 0.00 | 0.00 | 0.00 | 83 | 1013.1 |
| 20260506111252 | 53 | 345 | 8.0 | 9.0 | 0.00 | 0.00 | 0.00 | 82 | 1013.2 |
| 20260506110749 | 53 | 5 | 8.0 | 13.0 | 0.00 | 0.00 | 0.00 | 82 | 1013.1 |
| 20260506110247 | 54 | 352 | 5.0 | 7.0 | 0.00 | 0.00 | 0.00 | 81 | 1012.9 |
| 20260506105743 | 54 | 329 | 5.0 | 6.0 | 0.00 | 0.00 | 0.00 | 81 | 1012.7 |
| 20260506105240 | 54 | 7 | 7.0 | 8.0 | 0.00 | 0.00 | 0.00 | 81 | 1012.6 |
| 20260506104738 | 54 | 7 | 5.0 | 7.0 | 0.00 | 0.00 | 0.00 | 80 | 1012.6 |
| 20260506104235 | 54 | 14 | 5.0 | 8.0 | 0.00 | 0.00 | 0.00 | 80 | 1012.3 |
| 20260506103732 | 54 | 313 | 5.0 | 7.0 | 0.00 | 0.00 | 0.00 | 80 | 1012.3 |
| 20260506103229 | 54 | 333 | 7.0 | 8.0 | 0.00 | 0.00 | 0.00 | 80 | 1012.5 |
| 20260506102727 | 54 | 20 | 7.0 | 8.0 | 0.00 | 0.00 | 0.00 | 80 | 1012.3 |
| 20260506102225 | 54 | 23 | 9.0 | 10.0 | 0.00 | 0.00 | 0.00 | 80 | 1012.2 |
| 20260506101721 | 54 | 27 | 4.0 | 5.0 | 0.00 | 0.00 | 0.00 | 80 | 1012.2 |